�������l�o���
Date,Time,MP-1(��Sv/h),MP-2(��Sv/h),MP-3(��Sv/h),MP-4(��Sv/h),MP-5(��Sv/h),MP-6(��Sv/h),MP-7(��Sv/h),MP-8(��Sv/h),����,����(m/s),���J
2024/04/19,00:00,0.513,0.778,0.490,0.958,0.691,0.319,0.554,0.520,�k�k��,6.8,��
2024/04/19,00:10,0.511,0.779,0.489,0.958,0.690,0.319,0.555,0.519,�k�k��,6.6,��
2024/04/19,00:20,0.510,0.781,0.488,0.956,0.689,0.319,0.554,0.519,�k��,6.7,��
2024/04/19,00:30,0.509,0.779,0.489,0.958,0.690,0.319,0.553,0.521,�k��,6.3,��
2024/04/19,00:40,0.510,0.780,0.490,0.961,0.690,0.320,0.554,0.519,�k�k��,6.6,��
2024/04/19,00:50,0.510,0.778,0.489,0.958,0.693,0.318,0.553,0.520,�k�k��,6.9,��
2024/04/19,01:00,0.512,0.778,0.487,0.957,0.690,0.320,0.554,0.520,�k�k��,6.3,��
2024/04/19,01:10,0.510,0.777,0.488,0.958,0.690,0.319,0.555,0.519,�k�k��,7.8,��
2024/04/19,01:20,0.510,0.779,0.489,0.958,0.690,0.317,0.553,0.520,�k�k��,7.8,��
2024/04/19,01:30,0.510,0.781,0.490,0.958,0.689,0.319,0.553,0.520,�k�k��,7.2,��
2024/04/19,01:40,0.510,0.780,0.489,0.958,0.689,0.318,0.554,0.520,�k�k��,7.1,��
2024/04/19,01:50,0.509,0.779,0.489,0.960,0.689,0.318,0.555,0.519,�k�k��,7.4,��
2024/04/19,02:00,0.510,0.780,0.489,0.957,0.690,0.319,0.555,0.521,�k�k��,7.4,��
2024/04/19,02:10,0.510,0.781,0.489,0.959,0.691,0.319,0.554,0.520,�k�k��,6.3,��
2024/04/19,02:20,0.508,0.778,0.487,0.958,0.691,0.318,0.555,0.520,�k�k��,7.0,��
2024/04/19,02:30,0.511,0.781,0.489,0.957,0.691,0.319,0.554,0.522,�k�k��,7.5,��
2024/04/19,02:40,0.509,0.777,0.490,0.959,0.690,0.318,0.554,0.518,�k�k��,7.3,�L
2024/04/19,02:50,0.512,0.780,0.489,0.957,0.691,0.320,0.555,0.521,�k�k��,6.5,�L
2024/04/19,03:00,0.511,0.781,0.489,0.957,0.690,0.319,0.554,0.521,�k�k��,6.6,��
2024/04/19,03:10,0.511,0.777,0.489,0.959,0.691,0.320,0.556,0.520,�k��,7.0,��
2024/04/19,03:20,0.511,0.780,0.489,0.957,0.690,0.320,0.554,0.521,�k��,6.3,��
2024/04/19,03:30,0.510,0.778,0.489,0.956,0.690,0.319,0.555,0.520,�k��,5.5,�L
2024/04/19,03:40,0.511,0.780,0.490,0.955,0.692,0.319,0.554,0.521,�k��,6.2,��
2024/04/19,03:50,0.510,0.779,0.491,0.957,0.690,0.320,0.554,0.520,�k�k��,6.9,��
2024/04/19,04:00,0.511,0.779,0.490,0.959,0.690,0.319,0.555,0.522,�k��,8.3,��
2024/04/19,04:10,0.511,0.778,0.490,0.957,0.689,0.318,0.556,0.519,�k��,8.2,��
2024/04/19,04:20,0.509,0.780,0.489,0.958,0.691,0.318,0.554,0.521,�k��,6.5,��
2024/04/19,04:30,0.509,0.778,0.489,0.957,0.689,0.318,0.556,0.520,�k��,6.9,��
2024/04/19,04:40,0.511,0.779,0.488,0.959,0.688,0.318,0.555,0.520,�k��,8.4,��
2024/04/19,04:50,0.510,0.779,0.489,0.957,0.689,0.320,0.554,0.522,�k��,8.9,��
2024/04/19,05:00,0.510,0.780,0.489,0.956,0.691,0.319,0.556,0.519,�k��,8.8,��
2024/04/19,05:10,0.510,0.780,0.488,0.958,0.689,0.318,0.554,0.521,�k��,8.1,��
2024/04/19,05:20,0.510,0.778,0.488,0.958,0.690,0.319,0.555,0.520,�k��,8.1,��
2024/04/19,05:30,0.510,0.780,0.488,0.958,0.690,0.316,0.555,0.521,�k��,7.8,��
2024/04/19,05:40,0.511,0.778,0.488,0.958,0.689,0.320,0.555,0.521,�k�k��,8.3,��
2024/04/19,05:50,0.510,0.778,0.488,0.955,0.689,0.316,0.554,0.521,�k��,8.3,��
2024/04/19,06:00,0.509,0.779,0.489,0.957,0.689,0.318,0.555,0.521,�k��,8.3,��
2024/04/19,06:10,0.509,0.779,0.490,0.958,0.691,0.316,0.554,0.521,�k�k��,9.6,��
2024/04/19,06:20,0.512,0.778,0.487,0.957,0.689,0.319,0.555,0.523,�k�k��,9.2,��
2024/04/19,06:30,0.511,0.778,0.487,0.959,0.690,0.317,0.556,0.521,�k�k��,8.6,��
2024/04/19,06:40,0.510,0.776,0.488,0.958,0.690,0.317,0.554,0.519,�k��,9.1,��
2024/04/19,06:50,0.510,0.778,0.488,0.957,0.691,0.318,0.556,0.522,�k��,9.9,��
2024/04/19,07:00,0.512,0.780,0.488,0.958,0.690,0.317,0.555,0.522,�k��,10.3,��
2024/04/19,07:10,0.508,0.778,0.488,0.960,0.690,0.318,0.554,0.521,�k��,9.8,��
2024/04/19,07:20,0.511,0.776,0.489,0.959,0.691,0.318,0.554,0.521,�k�k��,8.7,��
2024/04/19,07:30,0.510,0.779,0.489,0.959,0.690,0.318,0.555,0.522,�k�k��,8.0,��
2024/04/19,07:40,0.509,0.778,0.488,0.958,0.688,0.318,0.554,0.521,�k�k��,9.1,��
2024/04/19,07:50,0.510,0.778,0.488,0.959,0.691,0.317,0.554,0.521,�k�k��,7.7,��
2024/04/19,08:00,0.509,0.777,0.488,0.959,0.690,0.317,0.556,0.521,�k�k��,7.4,��
2024/04/19,08:10,0.510,0.776,0.488,0.959,0.690,0.315,0.554,0.521,�k�k��,7.7,��
2024/04/19,08:20,0.510,0.777,0.489,0.959,0.691,0.316,0.555,0.520,�k�k��,7.5,��
2024/04/19,08:30,0.511,0.775,0.490,0.959,0.689,0.316,0.554,0.520,�k�k��,9.5,��
2024/04/19,08:40,0.511,0.778,0.489,0.959,0.689,0.316,0.555,0.521,�k��,9.7,��
2024/04/19,08:50,0.509,0.776,0.490,0.961,0.688,0.316,0.555,0.520,�k�k��,9.0,��
2024/04/19,09:00,0.509,0.777,0.490,0.959,0.686,0.316,0.556,0.520,�k��,10.5,��
2024/04/19,09:10,0.508,0.777,0.487,0.958,0.687,0.317,0.555,0.520,�k��,9.7,��
2024/04/19,09:20,0.508,0.778,0.486,0.961,0.689,0.316,0.554,0.519,�k��,7.8,��
2024/04/19,09:30,0.508,0.777,0.488,0.958,0.690,0.317,0.556,0.518,�k��,11.6,��
2024/04/19,09:40,0.509,0.779,0.488,0.962,0.690,0.316,0.555,0.518,���k��,8.4,��
2024/04/19,09:50,0.509,0.777,0.487,0.960,0.688,0.316,0.554,0.518,�k��,6.9,��
2024/04/19,10:00,0.509,0.778,0.485,0.961,0.690,0.316,0.555,0.519,���k��,10.3,��
2024/04/19,10:10,0.510,0.776,0.489,0.960,0.689,0.317,0.553,0.520,�k��,9.8,��
2024/04/19,10:20,0.508,0.778,0.489,0.963,0.687,0.317,0.555,0.519,�k�k��,7.6,��
2024/04/19,10:30,0.509,0.778,0.490,0.962,0.690,0.317,0.554,0.520,�k��,9.6,��
2024/04/19,10:40,0.509,0.779,0.488,0.962,0.691,0.318,0.555,0.521,�k��,12.4,��
2024/04/19,10:50,0.512,0.779,0.488,0.962,0.691,0.317,0.554,0.523,�k��,9.2,��
2024/04/19,11:00,0.510,0.778,0.491,0.962,0.691,0.317,0.554,0.522,�k��,12.7,��
2024/04/19,11:10,0.511,0.780,0.488,0.963,0.691,0.318,0.554,0.520,�k��,10.7,��
2024/04/19,11:20,0.510,0.780,0.490,0.961,0.691,0.317,0.554,0.521,�k��,11.1,��
2024/04/19,11:30,0.512,0.780,0.490,0.960,0.692,0.317,0.553,0.521,�k��,9.3,��
2024/04/19,11:40,0.512,0.780,0.491,0.963,0.692,0.317,0.556,0.523,�k��,9.9,��
2024/04/19,11:50,0.512,0.781,0.488,0.962,0.692,0.318,0.555,0.523,�k��,10.5,��
2024/04/19,12:00,0.513,0.780,0.487,0.959,0.693,0.318,0.554,0.523,�k��,12.0,��
2024/04/19,12:10,0.511,0.781,0.488,0.960,0.692,0.318,0.555,0.524,�k��,7.3,��
2024/04/19,12:20,0.512,0.780,0.490,0.960,0.693,0.318,0.555,0.523,�k��,11.9,��
2024/04/19,12:30,0.512,0.779,0.489,0.962,0.693,0.319,0.556,0.524,���k��,11.3,��
2024/04/19,12:40,0.512,0.780,0.489,0.961,0.691,0.319,0.556,0.524,�k��,10.5,��
2024/04/19,12:50,0.512,0.779,0.489,0.963,0.691,0.319,0.555,0.523,���k��,10.7,��
2024/04/19,13:00,0.511,0.781,0.489,0.966,0.694,0.318,0.555,0.523,�k��,13.1,��
2024/04/19,13:10,0.510,0.778,0.490,0.964,0.692,0.317,0.555,0.524,�k��,10.5,��
2024/04/19,13:20,0.511,0.780,0.489,0.963,0.693,0.318,0.555,0.521,�k��,10.0,��
2024/04/19,13:30,0.511,0.780,0.488,0.962,0.693,0.317,0.554,0.524,�k��,13.6,��
2024/04/19,13:40,0.511,0.781,0.490,0.964,0.694,0.318,0.556,0.524,���k��,11.3,��
2024/04/19,13:50,0.512,0.781,0.490,0.964,0.694,0.317,0.555,0.524,�k��,11.6,��
2024/04/19,14:00,0.512,0.781,0.491,0.964,0.695,0.317,0.555,0.523,�k��,13.1,��
2024/04/19,14:10,0.511,0.781,0.489,0.963,0.696,0.318,0.555,0.524,�k��,13.0,��
2024/04/19,14:20,0.512,0.781,0.490,0.965,0.694,0.318,0.554,0.522,�k��,11.9,��
2024/04/19,14:30,0.511,0.781,0.489,0.964,0.695,0.316,0.555,0.523,�k��,11.1,��
2024/04/19,14:40,0.511,0.780,0.490,0.966,0.694,0.318,0.555,0.524,�k��,18.0,��
2024/04/19,14:50,0.512,0.781,0.488,0.964,0.694,0.319,0.555,0.523,�k��,14.1,��
2024/04/19,15:00,0.511,0.782,0.488,0.963,0.693,0.318,0.555,0.524,�k��,13.5,��
2024/04/19,15:10,0.513,0.782,0.491,0.962,0.695,0.317,0.557,0.523,�k��,13.3,��
2024/04/19,15:20,0.512,0.780,0.489,0.963,0.693,0.317,0.557,0.524,�k��,12.7,��
2024/04/19,15:30,0.512,0.780,0.489,0.963,0.694,0.318,0.555,0.524,�k��,14.7,��
2024/04/19,15:40,0.512,0.781,0.490,0.965,0.693,0.317,0.555,0.523,�k��,13.1,��
2024/04/19,15:50,0.512,0.781,0.490,0.963,0.696,0.318,0.556,0.523,�k��,11.7,��
2024/04/19,16:00,0.511,0.779,0.490,0.966,0.694,0.318,0.554,0.524,�k��,13.6,��
2024/04/19,16:10,0.512,0.780,0.490,0.962,0.695,0.318,0.555,0.522,�k��,10.5,��
2024/04/19,16:20,0.512,0.780,0.490,0.964,0.694,0.318,0.556,0.524,�k��,12.2,��
2024/04/19,16:30,0.512,0.782,0.489,0.964,0.696,0.317,0.555,0.522,�k��,13.5,��
2024/04/19,16:40,0.511,0.780,0.489,0.966,0.694,0.317,0.555,0.523,�k��,15.8,��
2024/04/19,16:50,0.511,0.783,0.488,0.965,0.694,0.318,0.555,0.523,�k��,13.6,��
2024/04/19,17:00,0.512,0.782,0.488,0.964,0.694,0.318,0.556,0.522,���k��,16.0,��
2024/04/19,17:10,0.512,0.780,0.490,0.963,0.694,0.317,0.555,0.522,�k��,15.5,��
2024/04/19,17:20,0.512,0.782,0.488,0.963,0.694,0.317,0.554,0.521,�k��,14.7,��
2024/04/19,17:30,0.511,0.780,0.490,0.964,0.694,0.317,0.555,0.521,�k��,15.0,��
2024/04/19,17:40,0.511,0.780,0.488,0.965,0.696,0.318,0.555,0.522,���k��,11.3,��
2024/04/19,17:50,0.510,0.782,0.489,0.966,0.695,0.317,0.554,0.521,�k��,10.7,��
2024/04/19,18:00,0.511,0.782,0.488,0.967,0.696,0.318,0.554,0.524,�k��,9.7,��
2024/04/19,18:10,0.512,0.783,0.488,0.963,0.693,0.318,0.555,0.524,�k��,10.6,��
2024/04/19,18:20,0.512,0.782,0.488,0.966,0.694,0.318,0.555,0.522,�k��,8.3,��
2024/04/19,18:30,0.514,0.783,0.490,0.969,0.693,0.318,0.553,0.524,�k��,6.3,��
2024/04/19,18:40,0.513,0.783,0.492,0.968,0.696,0.318,0.553,0.524,�k��,7.5,��
2024/04/19,18:50,0.515,0.784,0.491,0.968,0.693,0.317,0.553,0.524,�k��,8.5,��
2024/04/19,19:00,0.513,0.784,0.492,0.969,0.696,0.318,0.553,0.524,�k��,8.6,��
2024/04/19,19:10,0.514,0.782,0.492,0.967,0.696,0.318,0.554,0.523,�k��,7.5,��
2024/04/19,19:20,0.514,0.784,0.491,0.968,0.696,0.319,0.554,0.524,�k��,6.3,��
2024/04/19,19:30,0.514,0.785,0.491,0.967,0.697,0.319,0.554,0.525,�k��,8.0,��
2024/04/19,19:40,0.513,0.782,0.491,0.968,0.699,0.318,0.555,0.524,�k��,8.0,��
2024/04/19,19:50,0.514,0.785,0.492,0.968,0.698,0.318,0.555,0.524,�k��,6.3,��
2024/04/19,20:00,0.514,0.784,0.490,0.967,0.695,0.320,0.556,0.524,�k��,6.2,��
2024/04/19,20:10,0.512,0.783,0.491,0.967,0.698,0.319,0.555,0.523,�k��,5.4,��
2024/04/19,20:20,0.514,0.781,0.491,0.968,0.697,0.318,0.554,0.523,�k�k��,4.1,��
2024/04/19,20:30,0.513,0.784,0.491,0.966,0.699,0.318,0.555,0.524,�k��,3.6,��
2024/04/19,20:40,0.515,0.783,0.491,0.968,0.697,0.318,0.556,0.523,�k��,3.7,��
2024/04/19,20:50,0.512,0.785,0.489,0.968,0.694,0.319,0.556,0.523,�k��,4.8,��
2024/04/19,21:00,0.512,0.784,0.490,0.969,0.697,0.319,0.558,0.522,�k��,5.8,��
2024/04/19,21:10,0.512,0.782,0.489,0.966,0.695,0.319,0.556,0.523,�k��,4.1,��
2024/04/19,21:20,0.513,0.783,0.492,0.966,0.698,0.319,0.555,0.522,�k�k��,6.0,��
2024/04/19,21:30,0.513,0.784,0.490,0.966,0.698,0.318,0.555,0.521,�k�k��,4.9,��
2024/04/19,21:40,0.512,0.782,0.490,0.969,0.697,0.318,0.556,0.522,�k�k��,5.4,��
2024/04/19,21:50,0.512,0.784,0.489,0.967,0.697,0.319,0.555,0.522,�k�k��,2.6,��
2024/04/19,22:00,0.513,0.784,0.489,0.968,0.696,0.319,0.555,0.521,�k�k��,4.5,��
2024/04/19,22:10,0.512,0.784,0.491,0.969,0.697,0.319,0.556,0.522,�k�k��,3.6,��
2024/04/19,22:20,0.513,0.782,0.489,0.966,0.695,0.318,0.556,0.522,���k��,4.5,��
2024/04/19,22:30,0.512,0.783,0.491,0.968,0.698,0.319,0.557,0.521,��,5.7,��
2024/04/19,22:40,0.512,0.783,0.490,0.967,0.696,0.319,0.556,0.521,��,7.1,��
2024/04/19,22:50,0.512,0.784,0.489,0.967,0.696,0.318,0.557,0.521,��,8.9,��
2024/04/19,23:00,0.514,0.784,0.492,0.967,0.697,0.319,0.555,0.521,��,9.4,��
2024/04/19,23:10,0.514,0.783,0.491,0.967,0.696,0.318,0.555,0.522,��,9.3,��
2024/04/19,23:20,0.513,0.783,0.490,0.966,0.698,0.319,0.555,0.522,��,11.6,��
2024/04/19,23:30,0.514,0.783,0.490,0.967,0.695,0.319,0.557,0.522,��,11.1,��
2024/04/19,23:40,0.513,0.783,0.491,0.968,0.695,0.319,0.556,0.520,��,10.7,��
2024/04/19,23:50,0.513,0.782,0.489,0.967,0.697,0.318,0.555,0.523,��,11.1,��
